Lewes DE-University DE USA current weather conditions

sailwx.info

Wind from 211 at 4 knots gusting 7

Air temperature 14.6° C
Dewpoint 14.3° C

Last reported at 2019-Dec-09 22:00 UTC.
Time now 2019-Dec-09 23:07 UTC

Location: N 38°47' W 075°09'.
View on Google Maps.

See reports from other nearby stations

  
Tides and Currents Weather Stations Pressure Air Temp Water Temp Dewpoint Dewpoint Depression Visibility Wind Speed Wind Dir Waves Ship Positions
date/time (UTC)wind fromknots sea level pressurealtimeterstation pressurevisibilityair tempwater tempwave heightnotes
2019-Dec-09 22:00 211 4 gusting 7 14.6
2019-Dec-09 21:55 212 4 gusting 6 14.5
2019-Dec-09 21:50 217 4 gusting 6 14.4
2019-Dec-09 21:45 211 4 gusting 6 14.4
2019-Dec-09 21:40 200 3 gusting 7 14.3
2019-Dec-09 21:35 202 3 gusting 7 14.2
2019-Dec-09 21:30 199 3 gusting 7 14.1
2019-Dec-09 21:25 191 3 gusting 5 14.0
2019-Dec-09 21:20 184 2 gusting 7 14.0
2019-Dec-09 21:15 176 2 gusting 5 13.8
2019-Dec-09 21:10 172 2 gusting 6 13.8
2019-Dec-09 21:05 183 1 gusting 3 13.7
2019-Dec-09 21:00 188 3 gusting 5 13.7
2019-Dec-09 20:55 176 3 gusting 5 13.6
2019-Dec-09 20:50 181 3 gusting 5 13.6
2019-Dec-09 20:45 164 1 gusting 4 13.4
2019-Dec-09 20:40 158 1 gusting 3 13.0
2019-Dec-09 20:35 169 1 gusting 4 13.0
2019-Dec-09 20:30 184 1 gusting 2 13.2
2019-Dec-09 20:25 172 1 gusting 2 13.1
2019-Dec-09 20:20 194 1 gusting 3 13.1
2019-Dec-09 20:15 196 1 gusting 2 13.0
2019-Dec-09 20:10 204 1 gusting 2 13.0
2019-Dec-09 20:05 190 1 gusting 3 12.9
2019-Dec-09 20:00 195 1 gusting 2 12.8
2019-Dec-09 19:55 221 1 gusting 2 12.8
2019-Dec-09 19:50 244 2 gusting 3 12.8
2019-Dec-09 19:45 249 3 gusting 4 12.8
2019-Dec-09 19:40 240 3 gusting 5 12.8
2019-Dec-09 19:35 250 3 gusting 5 12.7
2019-Dec-09 19:30 255 3 gusting 5 12.7
2019-Dec-09 19:25 239 2 gusting 4 12.8
2019-Dec-09 19:20 226 2 gusting 4 12.9
2019-Dec-09 19:15 218 1 gusting 4 12.9
2019-Dec-09 19:10 240 2 gusting 4 12.8
2019-Dec-09 19:05 258 2 gusting 4 13.0
2019-Dec-09 19:00 230 2 gusting 5 13.1
2019-Dec-09 18:55 210 2 gusting 3 13.1
2019-Dec-09 18:50 232 3 gusting 5 13.1
2019-Dec-09 18:45 226 3 gusting 5 13.2
2019-Dec-09 18:40 240 2 gusting 3 13.3
2019-Dec-09 18:35 236 2 gusting 6 13.3
2019-Dec-09 18:30 237 3 gusting 5 13.4
2019-Dec-09 18:25 238 3 gusting 5 13.5
2019-Dec-09 18:20 227 3 gusting 6 13.5
2019-Dec-09 18:15 219 5 gusting 9 13.5
2019-Dec-09 18:10 213 4 gusting 7 13.6
2019-Dec-09 18:05 215 4 gusting 8 13.6
2019-Dec-09 18:00 221 5 gusting 8 13.7
2019-Dec-09 17:55 223 4 gusting 8 13.8
2019-Dec-09 17:50 218 5 gusting 8 13.8
2019-Dec-09 17:45 217 4 gusting 6 13.8
2019-Dec-09 17:40 217 5 gusting 9 13.8
2019-Dec-09 17:35 212 3 gusting 6 13.8
2019-Dec-09 17:30 214 4 gusting 7 13.5
2019-Dec-09 17:25 222 4 gusting 7 13.4
2019-Dec-09 17:20 218 5 gusting 8 13.4
2019-Dec-09 17:15 224 4 gusting 8 13.3
2019-Dec-09 17:10 208 5 gusting 7 13.3
2019-Dec-09 17:05 216 4 gusting 8 13.2
2019-Dec-09 17:00 217 5 gusting 8 13.1
2019-Dec-09 16:55 224 7 gusting 9 13.1
2019-Dec-09 16:50 226 6 gusting 10 13.1
2019-Dec-09 16:45 219 5 gusting 9 13.0
2019-Dec-09 16:40 220 7 gusting 10 12.9
2019-Dec-09 16:35 226 7 gusting 10 12.9
2019-Dec-09 16:30 216 5 gusting 9 13.0
2019-Dec-09 16:25 210 6 gusting 12 12.9
2019-Dec-09 16:20 212 7 gusting 11 12.9
2019-Dec-09 16:15 210 6 gusting 10 12.8
2019-Dec-09 16:10 214 7 gusting 12 12.8
2019-Dec-09 16:05 220 6 gusting 9 12.8
2019-Dec-09 16:00 211 5 gusting 9 12.9
2019-Dec-09 15:55 209 4 gusting 6 12.9
2019-Dec-09 15:50 208 5 gusting 10 12.8
2019-Dec-09 15:45 198 5 gusting 9 12.7
2019-Dec-09 15:40 206 4 gusting 7 12.7
2019-Dec-09 15:35 199 5 gusting 9 12.7
2019-Dec-09 15:30 211 6 gusting 10 12.7
2019-Dec-09 15:25 205 5 gusting 8 12.6
2019-Dec-09 15:20 214 6 gusting 10 12.5
2019-Dec-09 15:15 212 5 gusting 8 12.4
2019-Dec-09 15:10 211 6 gusting 9 12.2
2019-Dec-09 15:05 208 5 gusting 7 12.0
2019-Dec-09 15:00 203 4 gusting 8 12.0
2019-Dec-09 14:55 199 4 gusting 7 11.9
2019-Dec-09 14:50 207 4 gusting 8 11.9
2019-Dec-09 14:45 204 4 gusting 7 11.8
2019-Dec-09 14:40 220 7 gusting 11 11.8
2019-Dec-09 14:35 218 6 gusting 10 11.8
2019-Dec-09 14:30 227 8 gusting 14 11.8
2019-Dec-09 14:25 224 9 gusting 14 11.8
2019-Dec-09 14:20 224 9 gusting 14 11.9
2019-Dec-09 14:15 220 8 gusting 13 11.9
2019-Dec-09 14:10 218 8 gusting 14 11.9
2019-Dec-09 14:05 211 8 gusting 12 11.8
2019-Dec-09 14:00 209 9 gusting 13 11.8
2019-Dec-09 13:55 212 7 gusting 11 11.6
2019-Dec-09 13:50 210 7 gusting 12 11.6
2019-Dec-09 13:45 213 7 gusting 10 11.5
2019-Dec-09 13:40 216 6 gusting 9 11.4
2019-Dec-09 13:35 215 5 gusting 8 11.3
2019-Dec-09 13:30 213 5 gusting 8 11.4
2019-Dec-09 13:25 224 6 gusting 8 11.4
2019-Dec-09 13:20 216 6 gusting 10 11.4
2019-Dec-09 13:15 213 5 gusting 10 11.3
2019-Dec-09 13:10 208 4 gusting 8 11.2
2019-Dec-09 13:05 201 4 gusting 6 11.1
2019-Dec-09 13:00 199 3 gusting 6 11.1
2019-Dec-09 12:55 197 3 gusting 6 11.0
2019-Dec-09 12:50 196 3 gusting 5 10.9
2019-Dec-09 12:45 192 3 gusting 6 10.8
2019-Dec-09 12:40 190 3 gusting 6 10.7
2019-Dec-09 12:35 198 3 gusting 7 10.6
2019-Dec-09 12:30 186 3 gusting 6 10.6
2019-Dec-09 12:25 194 4 gusting 7 10.7
2019-Dec-09 12:20 168 3 gusting 8 10.8
2019-Dec-09 12:15 155 3 gusting 6 10.9
2019-Dec-09 12:10 152 3 gusting 7 10.6
2019-Dec-09 12:05 177 2 gusting 6 10.1
2019-Dec-09 12:00 171 2 gusting 5 9.4
2019-Dec-09 11:55 172 1 gusting 3 8.8
2019-Dec-09 11:50 140 1 gusting 2 8.5
2019-Dec-09 11:45 165 0 gusting 1 8.2
2019-Dec-09 11:40 8.1
2019-Dec-09 11:35 8.1
2019-Dec-09 11:30 8.0
2019-Dec-09 11:25 8.0
2019-Dec-09 11:20 7.9
2019-Dec-09 11:15 198 0 gusting 1 7.9
2019-Dec-09 11:10 194 0 gusting 1 7.9
2019-Dec-09 11:05 215 1 gusting 1 8.0
2019-Dec-09 11:00 249 1 gusting 2 8.1
2019-Dec-09 10:55 271 3 gusting 5 8.1
2019-Dec-09 10:50 266 3 gusting 5 8.2
2019-Dec-09 10:45 272 3 gusting 5 8.2
2019-Dec-09 10:40 262 4 gusting 7 8.2
2019-Dec-09 10:35 256 4 gusting 6 8.3
2019-Dec-09 10:30 244 3 gusting 5 8.4
2019-Dec-09 10:25 243 5 gusting 9 9.2
2019-Dec-09 10:20 207 1 gusting 2 8.9
2019-Dec-09 10:15 161 0 gusting 5 8.3
2019-Dec-09 10:10 182 0 gusting 2 8.4
2019-Dec-09 10:05 067 0 gusting 1 8.4
2019-Dec-09 10:00 328 0 gusting 0 8.2
2019-Dec-09 09:55 286 0 gusting 1 8.1
2019-Dec-09 09:50 307 1 gusting 3 8.1
2019-Dec-09 09:45 318 1 gusting 2 7.9
2019-Dec-09 09:40 035 0 gusting 0 7.8
2019-Dec-09 09:35 322 0 gusting 2 7.6
2019-Dec-09 09:30 295 2 gusting 5 7.7
2019-Dec-09 09:25 054 0 gusting 2 7.6
2019-Dec-09 09:20 103 0 gusting 0 7.5
2019-Dec-09 09:15 065 0 gusting 0 7.4
2019-Dec-09 09:10 326 0 gusting 1 7.4
2019-Dec-09 09:05 053 0 gusting 2 7.3
2019-Dec-09 09:00 333 2 gusting 3 7.3
2019-Dec-09 08:55 335 2 gusting 2 7.3
2019-Dec-09 08:50 006 1 gusting 1 7.4
2019-Dec-09 08:45 019 0 gusting 1 7.3
2019-Dec-09 08:40 348 1 gusting 2 7.3
2019-Dec-09 08:35 339 3 gusting 3 7.3
2019-Dec-09 08:30 345 1 gusting 2 7.3
2019-Dec-09 08:25 011 1 gusting 2 7.2
2019-Dec-09 08:20 004 0 gusting 1 7.1
2019-Dec-09 08:15 357 1 gusting 2 7.1
2019-Dec-09 08:10 354 1 gusting 2 7.1
2019-Dec-09 08:05 330 1 gusting 2 7.1
2019-Dec-09 08:00 326 1 gusting 2 7.1
2019-Dec-09 07:55 322 0 gusting 0 7.1
2019-Dec-09 07:50 322 0 gusting 1 7.1
2019-Dec-09 07:45 319 0 gusting 1 7.1
2019-Dec-09 07:40 319 0 gusting 0 7.1
2019-Dec-09 07:35 317 0 gusting 1 7.1
2019-Dec-09 07:30 319 0 gusting 2 7.1
2019-Dec-09 07:25 315 1 gusting 2 7.0
2019-Dec-09 07:20 6.9
2019-Dec-09 07:15 029 0 gusting 1 6.8
2019-Dec-09 07:10 009 0 gusting 1 6.7
2019-Dec-09 07:05 006 1 gusting 2 6.6
2019-Dec-09 07:00 358 1 gusting 2 6.5
2019-Dec-09 06:55 347 1 gusting 2 6.5
2019-Dec-09 06:50 355 2 gusting 2 6.6
2019-Dec-09 06:45 351 1 gusting 2 6.6
2019-Dec-09 06:40 344 1 gusting 2 6.5
2019-Dec-09 06:35 331 0 gusting 1 6.5
2019-Dec-09 06:30 336 1 gusting 1 6.5
2019-Dec-09 06:25 342 1 gusting 2 6.5
2019-Dec-09 06:20 352 1 gusting 2 6.5
2019-Dec-09 06:15 351 1 gusting 1 6.6
2019-Dec-09 06:10 356 1 gusting 2 6.7
2019-Dec-09 06:05 347 0 gusting 1 6.7
2019-Dec-09 06:00 329 1 gusting 1 6.6
2019-Dec-09 05:55 335 0 gusting 1 6.6
2019-Dec-09 05:50 315 0 gusting 1 6.6
2019-Dec-09 05:45 302 0 gusting 1 6.5
2019-Dec-09 05:40 293 0 gusting 1 6.5
2019-Dec-09 05:35 293 0 gusting 1 6.4
2019-Dec-09 05:30 320 0 gusting 1 6.4
2019-Dec-09 05:25 262 1 gusting 5 6.4
2019-Dec-09 05:20 278 0 gusting 3 6.5
2019-Dec-09 05:15 274 1 gusting 2 6.6
2019-Dec-09 05:10 313 0 gusting 1 6.7
2019-Dec-09 05:05 285 0 gusting 1 6.8
2019-Dec-09 05:00 307 0 gusting 2 6.9
2019-Dec-09 04:55 275 0 gusting 1 6.9
2019-Dec-09 04:50 275 0 gusting 0 6.9
2019-Dec-09 04:45 275 0 gusting 1 6.9
2019-Dec-09 04:40 275 0 gusting 1 6.9
2019-Dec-09 04:35 275 0 gusting 0 6.9
2019-Dec-09 04:30 6.9
2019-Dec-09 04:25 276 0 gusting 1 7.0
2019-Dec-09 04:20 292 0 gusting 1 7.0
2019-Dec-09 04:15 335 0 gusting 1 6.9
2019-Dec-09 04:10 004 0 gusting 1 6.9
2019-Dec-09 04:05 014 0 gusting 1 6.8
2019-Dec-09 04:00 025 1 gusting 1 6.7
2019-Dec-09 03:55 356 1 gusting 3 6.5
2019-Dec-09 03:50 006 1 gusting 3 6.4
2019-Dec-09 03:45 339 2 gusting 3 6.4
2019-Dec-09 03:40 6.3
2019-Dec-09 03:35 319 1 gusting 2 6.2
2019-Dec-09 03:30 338 0 gusting 0 6.2
2019-Dec-09 03:25 331 1 gusting 1 6.2
2019-Dec-09 03:20 317 1 gusting 2 6.3
2019-Dec-09 03:15 327 0 gusting 1 6.2
2019-Dec-09 03:10 331 1 gusting 1 6.3
2019-Dec-09 03:05 342 1 gusting 1 6.4
2019-Dec-09 03:00 321 0 gusting 1 6.4
2019-Dec-09 02:55 324 1 gusting 1 6.5
2019-Dec-09 02:50 327 1 gusting 1 6.5
2019-Dec-09 02:45 342 1 gusting 2 6.6
2019-Dec-09 02:40 335 2 gusting 3 7.0
2019-Dec-09 02:35 334 2 gusting 3 8.0
2019-Dec-09 02:30 029 0 gusting 0 8.6
2019-Dec-09 02:25 073 0 gusting 0 8.6
2019-Dec-09 02:20 131 0 gusting 1 8.6
2019-Dec-09 02:15 164 0 gusting 2 8.4
2019-Dec-09 02:10 174 0 gusting 2 8.3
2019-Dec-09 02:05 163 0 gusting 1 8.3
2019-Dec-09 02:00 161 0 gusting 3 8.2
2019-Dec-09 01:55 169 0 gusting 3 8.1
2019-Dec-09 01:50 165 0 gusting 3 7.9
2019-Dec-09 01:45 150 1 gusting 4 7.7
2019-Dec-09 01:40 169 1 gusting 4 7.5
2019-Dec-09 01:35 166 1 gusting 3 7.3
2019-Dec-09 01:30 181 1 gusting 2 7.2
2019-Dec-09 01:25 200 1 gusting 2 6.9
2019-Dec-09 01:20 192 0 gusting 1 6.5
2019-Dec-09 01:15 147 0 gusting 2 6.0
2019-Dec-09 01:10 155 0 gusting 0 5.7
2019-Dec-09 01:05 169 0 gusting 1 5.4
2019-Dec-09 01:00 187 0 gusting 1 5.2
2019-Dec-09 00:55 177 0 gusting 2 4.7
2019-Dec-09 00:50 242 0 gusting 1 4.6
2019-Dec-09 00:45 150 0 gusting 0 4.6
2019-Dec-09 00:40 150 0 gusting 0 4.7
2019-Dec-09 00:35 150 0 gusting 0 4.6
2019-Dec-09 00:30 182 0 gusting 1 4.2
2019-Dec-09 00:25 188 0 gusting 2 3.8
2019-Dec-09 00:20 190 0 gusting 0 3.7
2019-Dec-09 00:15 190 0 gusting 0 3.8
2019-Dec-09 00:10 4.0
2019-Dec-09 00:05 190 0 gusting 0 4.2
2019-Dec-09 00:00 190 0 gusting 0 4.3
2019-Dec-08 23:55 188 0 gusting 0 4.2
2019-Dec-08 23:50 188 0 gusting 0 4.5
2019-Dec-08 23:45 183 0 gusting 1 4.4
2019-Dec-08 23:40 173 0 gusting 0 4.5
2019-Dec-08 23:35 161 0 gusting 0 4.7
2019-Dec-08 23:30 159 0 gusting 0 4.2
2019-Dec-08 23:25 160 0 gusting 0 4.3
2019-Dec-08 23:20 166 0 gusting 0 4.1
2019-Dec-08 23:15 4.1
2019-Dec-08 23:10 4.1
2019-Dec-08 23:05 140 0 gusting 0 4.1
2019-Dec-08 23:00 141 0 gusting 0 3.5
2019-Dec-08 22:55 128 0 gusting 0 3.6
2019-Dec-08 22:50 3.9
2019-Dec-08 22:45 4.2
2019-Dec-08 22:40 128 0 gusting 0 4.5
2019-Dec-08 22:35 128 0 gusting 0 4.8
2019-Dec-08 22:30 4.9
2019-Dec-08 22:25 4.5
2019-Dec-08 22:20 4.3
2019-Dec-08 22:15 4.5
2019-Dec-08 22:10 134 0 gusting 0 4.8
2019-Dec-08 22:05 134 0 gusting 0 5.1
2019-Dec-08 22:00 5.5
2019-Dec-08 21:55 5.8
2019-Dec-08 21:50 134 0 gusting 0 6.1
2019-Dec-08 21:45 6.3
2019-Dec-08 21:40 6.5
2019-Dec-08 21:35 162 0 gusting 1 6.8
2019-Dec-08 21:30 158 0 gusting 2 6.9
2019-Dec-08 21:25 154 1 gusting 3 7.2
2019-Dec-08 21:20 148 2 gusting 5 7.3
2019-Dec-08 21:15 161 2 gusting 4 7.4
2019-Dec-08 21:10 145 1 gusting 5 7.5
2019-Dec-08 21:05 158 2 gusting 4 7.6
2019-Dec-08 21:00 142 2 gusting 5 7.8
2019-Dec-08 20:55 166 2 gusting 4 7.9
2019-Dec-08 20:50 167 2 gusting 6 7.9
2019-Dec-08 20:45 156 2 gusting 5 8.0
2019-Dec-08 20:40 156 2 gusting 5 8.0
2019-Dec-08 20:35 158 2 gusting 4 7.9
2019-Dec-08 20:30 149 4 gusting 7 7.9
2019-Dec-08 20:25 160 3 gusting 7 8.0
2019-Dec-08 20:20 148 2 gusting 8 8.1
2019-Dec-08 20:15 163 2 gusting 5 8.1
2019-Dec-08 20:10 161 2 gusting 6 8.1
2019-Dec-08 20:05 150 2 gusting 7 8.3
2019-Dec-08 20:00 145 2 gusting 6 8.2
2019-Dec-08 19:55 144 2 gusting 6 8.1
2019-Dec-08 19:50 145 3 gusting 6 8.2
2019-Dec-08 19:45 136 3 gusting 6 8.4
2019-Dec-08 19:40 157 2 gusting 5 8.6
2019-Dec-08 19:35 143 3 gusting 7 8.5
2019-Dec-08 19:30 183 3 gusting 8 8.5
2019-Dec-08 19:25 144 3 gusting 8 8.3
2019-Dec-08 19:20 131 3 gusting 10 8.5
2019-Dec-08 19:15 111 3 gusting 7 8.7
2019-Dec-08 19:10 156 3 gusting 7 8.4
2019-Dec-08 19:05 179 4 gusting 10 8.5
2019-Dec-08 19:00 171 3 gusting 8 8.8
2019-Dec-08 18:55 162 2 gusting 6 8.6
2019-Dec-08 18:50 150 2 gusting 5 8.3
2019-Dec-08 18:45 172 3 gusting 6 8.1
2019-Dec-08 18:40 169 4 gusting 10 8.3
2019-Dec-08 18:35 176 4 gusting 7 8.3
2019-Dec-08 18:30 146 2 gusting 5 8.3
2019-Dec-08 18:25 152 2 gusting 6 7.9
2019-Dec-08 18:20 150 3 gusting 9 7.8
2019-Dec-08 18:15 139 2 gusting 6 8.3
2019-Dec-08 18:10 134 3 gusting 8 7.9
2019-Dec-08 18:05 144 3 gusting 8 7.9
2019-Dec-08 18:00 133 3 gusting 9 7.9
2019-Dec-08 17:55 172 3 gusting 8 8.1
2019-Dec-08 17:50 176 4 gusting 9 8.0
2019-Dec-08 17:45 136 3 gusting 7 8.1
2019-Dec-08 17:40 143 3 gusting 6 7.8
2019-Dec-08 17:35 158 3 gusting 8 7.6
2019-Dec-08 17:30 161 4 gusting 8 7.9
2019-Dec-08 17:25 162 2 gusting 6 7.6
2019-Dec-08 17:20 138 3 gusting 8 7.7
2019-Dec-08 17:15 126 2 gusting 7 7.8
2019-Dec-08 17:10 113 2 gusting 4 7.8
2019-Dec-08 17:05 116 2 gusting 6 7.9
2019-Dec-08 17:00 115 1 gusting 4 8.2
2019-Dec-08 16:55 111 1 gusting 4 7.7
2019-Dec-08 16:50 102 2 gusting 5 7.5
2019-Dec-08 16:45 113 2 gusting 10 7.5
2019-Dec-08 16:40 142 2 gusting 5 7.6
2019-Dec-08 16:35 151 2 gusting 6 7.6
2019-Dec-08 16:30 122 2 gusting 7 7.3
2019-Dec-08 16:25 156 2 gusting 6 7.2
2019-Dec-08 16:20 167 3 gusting 6 7.1
2019-Dec-08 16:15 123 2 gusting 5 7.2
2019-Dec-08 16:10 119 1 gusting 3 7.1
2019-Dec-08 16:05 118 1 gusting 6 6.8
2019-Dec-08 16:00 120 2 gusting 7 6.7
2019-Dec-08 15:55 103 1 gusting 5 6.7
2019-Dec-08 15:50 120 1 gusting 4 6.9
2019-Dec-08 15:45 120 2 gusting 4 7.0
2019-Dec-08 15:40 104 2 gusting 6 6.9
2019-Dec-08 15:35 115 2 gusting 4 6.7
2019-Dec-08 15:30 124 1 gusting 3 6.7
2019-Dec-08 15:25 114 1 gusting 4 6.5
2019-Dec-08 15:20 104 2 gusting 5 6.4
2019-Dec-08 15:15 116 1 gusting 6 6.4
2019-Dec-08 15:10 124 1 gusting 4 6.3
2019-Dec-08 15:05 103 1 gusting 5 6.3
2019-Dec-08 15:00 111 2 gusting 5 6.5
2019-Dec-08 14:55 119 1 gusting 3 6.6
2019-Dec-08 14:50 118 1 gusting 3 6.7
2019-Dec-08 14:45 113 1 gusting 4 6.8
2019-Dec-08 14:40 129 1 gusting 4 6.6
2019-Dec-08 14:35 128 2 gusting 5 6.4
2019-Dec-08 14:30 127 2 gusting 5 6.2
2019-Dec-08 14:25 130 2 gusting 5 6.1
2019-Dec-08 14:20 125 1 gusting 5 5.8
2019-Dec-08 14:15 096 2 gusting 7 5.4
2019-Dec-08 14:10 091 2 gusting 5 5.7
2019-Dec-08 14:05 122 1 gusting 4 5.9
2019-Dec-08 14:00 111 1 gusting 3 5.8
2019-Dec-08 13:55 115 1 gusting 5 5.5
2019-Dec-08 13:50 091 1 gusting 3 5.2
2019-Dec-08 13:45 088 2 gusting 4 5.3
2019-Dec-08 13:40 095 0 gusting 2 5.6
2019-Dec-08 13:35 100 0 gusting 1 4.9
2019-Dec-08 13:30 099 1 gusting 3 4.6
2019-Dec-08 13:25 115 1 gusting 4 4.2
2019-Dec-08 13:20 102 1 gusting 4 3.5
2019-Dec-08 13:15 094 0 gusting 2 3.0
2019-Dec-08 13:10 084 0 gusting 3 2.7
2019-Dec-08 13:05 087 0 gusting 2 2.5
2019-Dec-08 13:00 120 0 gusting 3 2.5
2019-Dec-08 12:55 129 0 gusting 2 2.1
2019-Dec-08 12:50 107 0 gusting 2 1.6
2019-Dec-08 12:45 103 0 gusting 3 1.4
2019-Dec-08 12:40 122 0 gusting 2 0.9
2019-Dec-08 12:35 101 0 gusting 0 1.0
2019-Dec-08 12:30 1.2
2019-Dec-08 12:25 087 0 gusting 2 1.2
2019-Dec-08 12:20 173 0 gusting 1 1.4
2019-Dec-08 12:15 156 0 gusting 2 1.6
2019-Dec-08 12:10 122 0 gusting 3 1.7
2019-Dec-08 12:05 143 0 gusting 2 1.7
2019-Dec-08 12:00 122 0 gusting 2 2.1
2019-Dec-08 11:55 146 1 gusting 6 2.7
2019-Dec-08 11:50 082 1 gusting 4 2.9
2019-Dec-08 11:45 084 2 gusting 5 2.9
2019-Dec-08 11:40 083 2 gusting 6 2.8
2019-Dec-08 11:35 091 1 gusting 4 2.9
2019-Dec-08 11:30 082 2 gusting 6 3.1
2019-Dec-08 11:25 072 3 gusting 5 3.1
2019-Dec-08 11:20 071 2 gusting 7 3.1
2019-Dec-08 11:15 082 2 gusting 5 3.0
2019-Dec-08 11:10 072 2 gusting 6 3.1
2019-Dec-08 11:05 072 2 gusting 5 3.1
2019-Dec-08 11:00 073 2 gusting 5 3.0
2019-Dec-08 10:55 068 2 gusting 5 3.0
2019-Dec-08 10:50 080 2 gusting 7 3.0
2019-Dec-08 10:45 077 2 gusting 6 3.0
2019-Dec-08 10:40 078 2 gusting 4 3.0
2019-Dec-08 10:35 071 2 gusting 5 3.1
2019-Dec-08 10:30 066 3 gusting 6 3.0
2019-Dec-08 10:25 075 2 gusting 4 3.0
2019-Dec-08 10:20 074 2 gusting 5 3.0
2019-Dec-08 10:15 065 2 gusting 4 2.9
2019-Dec-08 10:10 070 2 gusting 5 3.0
2019-Dec-08 10:05 061 2 gusting 5 2.9
2019-Dec-08 10:00 055 2 gusting 4 3.0
2019-Dec-08 09:55 068 2 gusting 6 3.0
2019-Dec-08 09:50 064 2 gusting 7 2.9
2019-Dec-08 09:45 053 2 gusting 5 2.9
2019-Dec-08 09:40 059 2 gusting 5 2.9
2019-Dec-08 09:35 048 2 gusting 6 3.0
2019-Dec-08 09:30 051 2 gusting 6 3.0
2019-Dec-08 09:25 060 3 gusting 6 3.0
2019-Dec-08 09:20 050 2 gusting 6 2.9
2019-Dec-08 09:15 057 2 gusting 5 2.9
2019-Dec-08 09:10 042 2 gusting 5 2.8
2019-Dec-08 09:05 045 2 gusting 6 2.8
2019-Dec-08 09:00 040 2 gusting 5 2.9
2019-Dec-08 08:55 050 2 gusting 6 2.8
2019-Dec-08 08:50 045 2 gusting 5 2.8
2019-Dec-08 08:45 041 2 gusting 4 2.8
2019-Dec-08 08:40 053 2 gusting 6 2.8
2019-Dec-08 08:35 047 2 gusting 5 2.8
2019-Dec-08 08:30 052 2 gusting 5 2.8
2019-Dec-08 08:25 055 2 gusting 5 2.8
2019-Dec-08 08:20 066 2 gusting 5 2.9
2019-Dec-08 08:15 065 2 gusting 6 2.8
2019-Dec-08 08:10 073 2 gusting 4 2.8
2019-Dec-08 08:05 068 2 gusting 4 2.9
2019-Dec-08 08:00 071 3 gusting 5 2.9
2019-Dec-08 07:55 069 2 gusting 5 2.9
2019-Dec-08 07:50 077 3 gusting 5 2.9
2019-Dec-08 07:45 064 2 gusting 5 2.8
2019-Dec-08 07:40 069 3 gusting 7 2.8
2019-Dec-08 07:35 076 2 gusting 7 2.8
2019-Dec-08 07:30 078 2 gusting 5 2.7
2019-Dec-08 07:25 061 2 gusting 6 2.7
2019-Dec-08 07:20 068 2 gusting 5 2.7
2019-Dec-08 07:15 060 2 gusting 6 2.7
2019-Dec-08 07:10 057 2 gusting 6 2.7
2019-Dec-08 07:05 062 2 gusting 5 2.7
2019-Dec-08 07:00 071 2 gusting 5 2.7
2019-Dec-08 06:55 068 2 gusting 6 2.7
2019-Dec-08 06:50 056 2 gusting 5 2.7
2019-Dec-08 06:45 061 2 gusting 6 2.6
2019-Dec-08 06:40 066 2 gusting 7 2.5
2019-Dec-08 06:35 063 1 gusting 4 2.6
2019-Dec-08 06:30 060 2 gusting 6 2.5
2019-Dec-08 06:25 053 2 gusting 5 2.5
2019-Dec-08 06:20 061 2 gusting 5 2.5
2019-Dec-08 06:15 050 2 gusting 5 2.5
2019-Dec-08 06:10 054 2 gusting 6 2.5
2019-Dec-08 06:05 053 2 gusting 7 2.5
2019-Dec-08 06:00 055 2 gusting 5 2.5
2019-Dec-08 05:55 043 2 gusting 6 2.5
2019-Dec-08 05:50 056 2 gusting 5 2.6
2019-Dec-08 05:45 050 3 gusting 7 2.6
2019-Dec-08 05:40 047 2 gusting 7 2.8
2019-Dec-08 05:35 031 4 gusting 8 2.8
2019-Dec-08 05:30 035 3 gusting 7 2.9
2019-Dec-08 05:25 033 3 gusting 7 3.1
2019-Dec-08 05:20 036 3 gusting 8 3.2
2019-Dec-08 05:15 031 3 gusting 6 3.3
2019-Dec-08 05:10 035 3 gusting 8 3.3
2019-Dec-08 05:05 034 2 gusting 7 3.3
2019-Dec-08 05:00 026 3 gusting 6 3.4
2019-Dec-08 04:55 028 3 gusting 6 3.4
2019-Dec-08 04:50 026 3 gusting 6 3.4
2019-Dec-08 04:45 028 3 gusting 7 3.4
2019-Dec-08 04:40 032 2 gusting 5 3.4
2019-Dec-08 04:35 022 3 gusting 6 3.5
2019-Dec-08 04:30 023 3 gusting 6 3.5
2019-Dec-08 04:25 026 3 gusting 6 3.4
2019-Dec-08 04:20 030 2 gusting 5 3.5
2019-Dec-08 04:15 026 2 gusting 6 3.5
2019-Dec-08 04:10 021 3 gusting 5 3.5
2019-Dec-08 04:05 026 3 gusting 5 3.5
2019-Dec-08 04:00 023 3 gusting 7 3.5
2019-Dec-08 03:55 026 2 gusting 5 3.5
2019-Dec-08 03:50 019 3 gusting 5 3.4
2019-Dec-08 03:45 023 2 gusting 5 3.4
2019-Dec-08 03:40 029 2 gusting 6 3.5
2019-Dec-08 03:35 017 3 gusting 5 3.5
2019-Dec-08 03:30 018 3 gusting 6 3.5
2019-Dec-08 03:25 017 2 gusting 5 3.5
2019-Dec-08 03:20 021 3 gusting 4 3.4
2019-Dec-08 03:15 018 3 gusting 5 3.4
2019-Dec-08 03:10 017 3 gusting 6 3.3
2019-Dec-08 03:05 012 3 gusting 6 2.7
2019-Dec-08 03:00 337 2 gusting 4 0.3
2019-Dec-08 02:55 288 1 gusting 2 -0.1
2019-Dec-08 02:50 290 1 gusting 1 0.0
2019-Dec-08 02:45 287 0 gusting 2 -0.3
2019-Dec-08 02:40 281 1 gusting 3 -0.1
2019-Dec-08 02:35 284 2 gusting 3 0.2
2019-Dec-08 02:30 299 1 gusting 5 0.2
2019-Dec-08 02:25 301 2 gusting 3 0.2
2019-Dec-08 02:20 300 1 gusting 2 0.0
2019-Dec-08 02:15 287 1 gusting 3 -0.1
2019-Dec-08 02:10 290 1 gusting 2 -0.1
2019-Dec-08 02:05 291 1 gusting 2 -0.1
2019-Dec-08 02:00 292 0 gusting 2 -0.1
2019-Dec-08 01:55 285 1 gusting 2 0.1
2019-Dec-08 01:50 294 1 gusting 2 0.4
2019-Dec-08 01:45 289 1 gusting 2 0.3
2019-Dec-08 01:40 296 1 gusting 2 0.6
2019-Dec-08 01:35 297 2 gusting 3 0.5
2019-Dec-08 01:30 291 1 gusting 2 0.3
2019-Dec-08 01:25 283 1 gusting 2 0.5
2019-Dec-08 01:20 287 1 gusting 3 0.9
2019-Dec-08 01:15 297 1 gusting 3 1.1
2019-Dec-08 01:10 297 2 gusting 3 1.0
2019-Dec-08 01:05 297 1 gusting 3 0.8
2019-Dec-08 01:00 295 1 gusting 3 0.7
2019-Dec-08 00:55 295 1 gusting 3 0.6
2019-Dec-08 00:50 291 2 gusting 4 0.8
2019-Dec-08 00:45 299 2 gusting 4 0.6
2019-Dec-08 00:40 294 1 gusting 3 0.4
2019-Dec-08 00:35 293 1 gusting 2 0.4
2019-Dec-08 00:30 294 0 gusting 2 0.5
2019-Dec-08 00:25 302 1 gusting 2 0.7
2019-Dec-08 00:20 296 1 gusting 2 0.6
2019-Dec-08 00:15 293 1 gusting 3 0.5
2019-Dec-08 00:10 293 2 gusting 3 0.6
2019-Dec-08 00:05 289 2 gusting 4 0.7
2019-Dec-08 00:00 294 2 gusting 4 0.6
2019-Dec-07 23:55 296 1 gusting 3 0.5
2019-Dec-07 23:50 288 1 gusting 3 0.5
2019-Dec-07 23:45 290 2 gusting 4 0.7
2019-Dec-07 23:40 285 2 gusting 3 0.8
2019-Dec-07 23:35 293 2 gusting 4 1.1
2019-Dec-07 23:30 289 2 gusting 4 1.3
2019-Dec-07 23:25 298 1 gusting 3 1.8
2019-Dec-07 23:20 300 2 gusting 5 1.8
2019-Dec-07 23:15 303 2 gusting 4 1.6
2019-Dec-07 23:10 296 2 gusting 4 1.7
2019-Dec-07 23:05 290 2 gusting 4 1.6
2019-Dec-07 23:00 290 2 gusting 4 1.6